Regional Weather Roundup
Issued by NWS Green Bay, WI

Home | Current Version | Previous Version | Text Only | Print | Product List | Glossary On
Versions: 1 2 3 4 5 6 7 8 9 10 11 12 13 14 15 16 17 18 19 20 21 22 23 24 25 26 27 28 29 30 31 32 33 34 35 36 37 38 39 40 41 42 43 44 45 46 47 48 49 50
000
ASUS43 KGRB 272210
RWRGRB

NORTH-CENTRAL AND NORTHEAST WISCONSIN REGIONAL WEATHER ROUNDUP
NATIONAL WEATHER SERVICE GREEN BAY WI
500 PM CDT FRI MAR 27 2015

WIZ005-009-010>012-018-019-272300-
NORTH CENTRAL WISCONSIN

CITY           SKY/WX    TMP DP  RH WIND       PRES   REMARKS
IRONWOOD       SUNNY     25  10  54 N6        30.14F
MANITOWISH WTR SUNNY     29   0  28 NE5       30.11S
ARBOR VITAE    SUNNY     29   1  29 N8        30.11S
EAGLE RIVER    SUNNY     28  -6  22 N6        30.10S
LAND O LAKES   SUNNY     28  -5  23 NW6       30.12S
RHINELANDER    SUNNY     29   0  28 CALM      30.11S
PHILLIPS       SUNNY     32   5  31 E3        30.11S
ANTIGO         SUNNY     28   3  34 N6        30.11F
TOMAHAWK       SUNNY     31  -2  25 CALM      30.12F
MERRILL        SUNNY     31   3  29 N5        30.12F
$$

WIZ013-073-272300-
NORTHEAST WISCONSIN

CITY           SKY/WX    TMP DP  RH WIND       PRES   REMARKS
IRON MOUNTAIN  SUNNY     28  -1  28 VRB3      30.13S
MARINETTE      SUNNY     25   9  50 SE9       30.18F
OCONTO         SUNNY     25  10  53 E6        30.19S
$$

WIZ017-030-035>037-045-272300-
CENTRAL WISCONSIN

CITY           SKY/WX    TMP DP  RH WIND       PRES   REMARKS
MEDFORD        SUNNY     30   6  36 CALM      30.12S
WAUSAU         SUNNY     32   2  27 VRB7      30.12F
MOSINEE        SUNNY     30   3  31 CALM      30.14F
MARSHFIELD     SUNNY     31   5  33 CALM      30.14F
WISC RAPIDS    SUNNY     32   5  32 CALM      30.17F
STEVENS POINT  SUNNY     30   3  31 N5        30.15S
WAUPACA        SUNNY     35  -1  22 N7        30.16F
SHAWANO        SUNNY     34   2  26 E6        30.16S
CLINTONVILLE   SUNNY     32   0  25 N6        30.15F
$$

WIZ038-039-048-051-272300-
FOX VALLEY

CITY           SKY/WX    TMP DP  RH WIND       PRES   REMARKS
NWS GREEN BAY  SUNNY     29   7  39 CALM      30.18S
APPLETON       SUNNY     30   3  31 N6        30.16F
OSHKOSH        SUNNY     29   7  39 E6        30.17S
FOND DU LAC    SUNNY     30   4  33 NE10      30.17F
$$

WIZ022-050-052-272300-
EAST CENTRAL WISCONSIN

CITY           SKY/WX    TMP DP  RH WIND       PRES   REMARKS
STURGEON BAY   SUNNY     25   3  39 N8        30.20S
MANITOWOC      SUNNY     27   9  46 N12       30.18S
SHEBOYGAN      SUNNY     27  11  51 NE14      30.17S
$$

LMZ563-521-522-541>543-272300-
LAKESHORE

STATION/POSITION TIME  TEMP    WIND        PRES    VSBY  WAVE
                       AIR SEA DIR/SP/G                  HT/PER
                 (UTC) (F)     (DEG/KT/KT) (MB)    (MI)  (FT/S)
SHEBOYGAN LKSHOR 2200   23      30/ 15/ 17 1023.5R
KEWAUNEE LKSHORE 2200   26      20/  8/ 14 1021.3F
NORTHPORT PIER   2200   22     350/ 12/ 15 1022.4S
SISTER BAY LKSHO 2200   31     360/ 14/ 20   N/A
STURGEON BAY CG  2100   26      30/  7     1023.2      6   2
CHAMBERS ISLAND  2200   22      30/ 11/ 14 1022.4S
MENOMINEE LKSHOR 2200   23      50/ 10     1022.8F
$$


USA.gov is the U.S. government's official web portal to all federal, state and local government web resources and services.